GFSFLT2_500_temp_057.txt.gz
Temp
-10 -10 -10 -9 -7 -7 -7 -6 -8 -8 -7 -7 -7 -8 -8 -7 -7 -7 -6 -6 -6 -5 -8 -7 -6 -6 -6 -6 -6 -5 -4 -4
-12 -12 -10 -11 -10 -10 -9 -7 -8 -6 -6 -7 -8 -8 -8 -7 -7 -7 -6 -7 -7 -7 -7 -7 -7 -7 -6 -6 -5 -5 -5 -4
-13 -12 -13 -11 -10 -10 -10 -8 -8 -8 -5 -7 -9 -9 -9 -8 -8 -8 -8 -8 -6 -7 -7 -7 -7 -7 -7 -6 -6 -5 -5 -4
-13 -13 -12 -12 -12 -12 -11 -9 -8 -8 -5 -8 -9 -9 -8 -9 -9 -9 -9 -9 -7 -5 -7 -6 -6 -6 -7 -7 -6 -5 -5 -5
-14 -15 -15 -13 -14 -13 -13 -11 -9 -10 -6 -8 -9 -10 -10 -9 -9 -9 -9 -9 -9 -6 -5 -7 -7 -7 -6 -7 -7 -6 -5 -5
-14 -15 -15 -15 -14 -13 -14 -13 -11 -11 -8 -8 -9 -10 -11 -10 -9 -10 -10 -10 -10 -10 -4 -6 -6 -7 -6 -6 -6 -6 -6 -5
-15 -16 -16 -15 -15 -15 -13 -12 -11 -10 -9 -9 -9 -11 -11 -10 -10 -10 -10 -9 -8 -7 -5 -7 -8 -7 -6 -6 -6 -6 -6 -6
-16 -16 -16 -16 -15 -15 -14 -12 -11 -11 -10 -10 -10 -11 -11 -10 -11 -11 -11 -10 -8 -7 -6 -3 -5 -7 -6 -5 -6 -7 -7 -6
-18 -19 -18 -17 -16 -15 -15 -13 -13 -13 -12 -12 -10 -9 -11 -11 -11 -11 -11 -10 -9 -7 -6 -5 -4 -7 -7 -7 -7 -8 -8 -7
-20 -21 -20 -16 -17 -17 -16 -15 -13 -14 -14 -13 -10 -9 -10 -11 -11 -10 -11 -11 -10 -9 -8 -7 -5 -6 -6 -6 -5 -9 -9 -8
-20 -21 -20 -19 -17 -17 -17 -16 -16 -15 -14 -14 -12 -10 -9 -11 -11 -11 -10 -11 -9 -9 -8 -7 -6 -5 -7 -5 -7 -6 -8 -8
-20 -21 -20 -19 -20 -20 -19 -16 -17 -17 -16 -13 -13 -11 -11 -10 -10 -11 -10 -11 -9 -8 -7 -8 -8 -8 -7 -6 -6 -7 -7 -8
-21 -21 -20 -20 -20 -20 -20 -16 -16 -16 -15 -12 -12 -12 -11 -10 -11 -11 -10 -10 -10 -10 -8 -7 -8 -9 -7 -6 -7 -7 -7 -7
-20 -20 -21 -20 -20 -20 -20 -19 -17 -17 -16 -14 -13 -12 -12 -11 -11 -11 -10 -9 -11 -10 -9 -7 -8 -7 -6 -6 -5 -6 -7 -8
-20 -20 -20 -19 -20 -20 -19 -18 -19 -18 -17 -15 -14 -12 -12 -12 -11 -12 -11 -9 -10 -10 -10 -9 -9 -8 -6 -7 -8 -6 -7 -8
-20 -20 -19 -20 -19 -19 -19 -18 -19 -19 -17 -16 -14 -13 -12 -13 -12 -11 -12 -10 -10 -10 -10 -9 -9 -9 -8 -7 -7 -6 -7 -8
-20 -20 -20 -19 -19 -18 -18 -18 -18 -18 -18 -17 -16 -15 -13 -13 -13 -12 -11 -10 -10 -10 -10 -9 -10 -10 -8 -7 -7 -7 -6 -7
-19 -20 -19 -19 -19 -19 -19 -18 -18 -19 -19 -19 -19 -18 -15 -13 -12 -12 -12 -11 -10 -10 -11 -9 -9 -10 -9 -8 -8 -7 -6 -6
-19 -19 -20 -19 -19 -19 -18 -18 -18 -19 -20 -20 -20 -19 -18 -13 -13 -13 -12 -12 -11 -11 -11 -10 -10 -10 -8 -9 -9 -8 -7 -7

GFSFLT2_500_temp_060.txt.gz
Temp
-9 -8 -8 -8 -8 -8 -7 -7 -7 -8 -8 -9 -9 -9 -9 -8 -8 -7 -7 -7 -7 -6 -6 -5 -5 -6 -6 -6 -6 -6 -6 -6
-10 -9 -9 -10 -10 -11 -9 -8 -8 -7 -8 -9 -9 -9 -8 -8 -8 -8 -7 -7 -7 -7 -6 -6 -6 -5 -6 -7 -6 -6 -6 -6
-12 -11 -11 -10 -10 -10 -9 -9 -9 -8 -9 -9 -9 -9 -9 -8 -8 -8 -8 -8 -7 -7 -7 -7 -7 -7 -6 -6 -6 -6 -6 -6
-13 -13 -13 -12 -11 -9 -9 -10 -9 -9 -9 -9 -10 -9 -9 -8 -7 -8 -8 -9 -8 -7 -6 -6 -6 -6 -6 -6 -6 -6 -6 -6
-14 -14 -14 -13 -12 -11 -10 -10 -10 -10 -10 -10 -11 -10 -10 -8 -8 -8 -8 -9 -9 -7 -6 -5 -6 -6 -7 -7 -6 -6 -6 -6
-14 -15 -15 -14 -14 -12 -11 -11 -9 -11 -13 -10 -11 -11 -9 -9 -8 -8 -9 -9 -7 -8 -8 -7 -6 -5 -7 -7 -7 -7 -6 -6
-14 -15 -15 -15 -15 -14 -13 -12 -11 -11 -13 -11 -10 -10 -9 -9 -8 -8 -8 -8 -8 -9 -6 -7 -6 -4 -6 -7 -7 -7 -7 -6
-16 -15 -15 -15 -16 -15 -14 -14 -13 -12 -13 -10 -11 -10 -10 -10 -9 -8 -9 -9 -8 -7 -6 -7 -7 -7 -5 -6 -6 -6 -7 -7
-16 -16 -16 -15 -15 -16 -16 -15 -14 -13 -13 -11 -11 -11 -10 -10 -10 -9 -9 -10 -9 -8 -7 -6 -7 -5 -5 -6 -7 -7 -7 -9
-17 -18 -17 -15 -15 -16 -16 -16 -16 -15 -14 -12 -10 -12 -11 -11 -10 -10 -9 -10 -10 -8 -8 -7 -6 -7 -7 -6 -6 -6 -6 -8
-18 -19 -19 -19 -19 -18 -16 -16 -16 -16 -15 -14 -11 -12 -12 -11 -11 -10 -10 -10 -10 -8 -8 -8 -8 -6 -6 -6 -6 -5 -6 -7
-19 -19 -19 -20 -20 -20 -19 -16 -16 -16 -15 -14 -12 -12 -12 -12 -11 -11 -10 -10 -10 -9 -7 -7 -8 -8 -8 -7 -7 -6 -7 -7
-19 -19 -19 -20 -21 -21 -21 -17 -17 -16 -16 -15 -13 -13 -12 -12 -12 -11 -11 -10 -10 -10 -8 -7 -8 -9 -8 -7 -8 -8 -8 -8
-19 -20 -20 -20 -20 -20 -20 -19 -18 -17 -16 -16 -14 -13 -13 -13 -12 -12 -11 -11 -10 -10 -10 -8 -9 -10 -9 -7 -7 -8 -7 -8
-19 -20 -20 -19 -20 -20 -20 -19 -19 -18 -17 -15 -14 -13 -13 -13 -12 -12 -13 -11 -11 -11 -11 -10 -10 -9 -8 -7 -7 -8 -6 -7
-19 -19 -19 -19 -19 -19 -19 -19 -19 -19 -17 -16 -15 -14 -13 -13 -13 -11 -12 -12 -11 -10 -11 -10 -10 -10 -9 -7 -8 -9 -9 -9
-20 -20 -20 -19 -19 -18 -18 -18 -18 -18 -18 -17 -16 -15 -15 -13 -12 -12 -12 -12 -11 -11 -10 -11 -11 -11 -9 -9 -7 -8 -9 -8
-19 -19 -19 -20 -19 -19 -18 -17 -17 -17 -17 -17 -17 -16 -15 -14 -12 -12 -12 -12 -12 -11 -11 -10 -11 -10 -10 -10 -8 -9 -8 -9
-19 -19 -19 -19 -19 -19 -19 -18 -18 -17 -17 -17 -17 -16 -16 -16 -15 -13 -12 -12 -12 -11 -11 -10 -10 -10 -10 -10 -9 -9 -8 -7

GFSFLT2_500_temp_063.txt.gz
Temp
-9 -9 -9 -9 -9 -9 -9 -9 -9 -9 -10 -9 -9 -8 -8 -8 -7 -7 -7 -6 -6 -6 -6 -6 -6 -7 -7 -6 -6 -6 -6 -6
-10 -10 -10 -10 -10 -9 -9 -9 -8 -8 -9 -10 -9 -9 -8 -8 -7 -7 -8 -8 -7 -6 -7 -7 -7 -7 -7 -6 -6 -6 -6 -6
-12 -11 -11 -10 -10 -10 -9 -9 -9 -9 -9 -9 -9 -9 -9 -8 -7 -7 -7 -9 -8 -7 -7 -7 -7 -7 -7 -6 -6 -6 -6 -6
-13 -13 -12 -12 -11 -11 -10 -10 -10 -10 -9 -9 -10 -9 -9 -8 -8 -7 -8 -8 -8 -7 -7 -8 -7 -7 -7 -7 -7 -6 -6 -6
-15 -14 -13 -12 -12 -12 -12 -12 -11 -10 -9 -9 -9 -10 -9 -9 -8 -8 -7 -7 -7 -7 -7 -7 -7 -7 -6 -6 -7 -6 -7 -6
-15 -15 -15 -14 -14 -13 -13 -13 -12 -11 -9 -9 -8 -9 -10 -9 -8 -8 -8 -8 -7 -6 -7 -7 -7 -6 -6 -6 -6 -6 -6 -6
-14 -15 -15 -15 -15 -14 -14 -14 -13 -12 -10 -10 -9 -8 -9 -10 -9 -8 -8 -9 -7 -6 -7 -7 -6 -6 -6 -6 -6 -6 -6 -5
-15 -14 -15 -15 -15 -15 -15 -14 -14 -13 -12 -12 -11 -10 -9 -9 -10 -9 -8 -8 -7 -7 -6 -6 -6 -6 -5 -6 -6 -6 -6 -6
-15 -15 -15 -15 -15 -15 -15 -15 -14 -14 -13 -11 -12 -12 -11 -10 -10 -10 -9 -8 -8 -8 -7 -7 -7 -6 -6 -6 -8 -7 -7 -6
-15 -16 -15 -15 -15 -15 -16 -16 -15 -14 -14 -13 -13 -12 -12 -11 -10 -10 -9 -9 -8 -8 -8 -8 -8 -7 -8 -7 -8 -7 -7 -7
-15 -15 -16 -16 -16 -16 -16 -15 -16 -15 -15 -14 -14 -13 -12 -12 -11 -11 -10 -9 -8 -8 -8 -8 -8 -8 -8 -7 -8 -7 -7 -7
-16 -16 -16 -17 -17 -17 -17 -17 -16 -16 -16 -15 -14 -13 -13 -12 -13 -12 -11 -10 -9 -8 -8 -7 -7 -7 -8 -8 -7 -7 -7 -7
-17 -16 -16 -17 -17 -18 -18 -17 -17 -17 -16 -16 -15 -14 -14 -13 -13 -13 -12 -10 -9 -9 -9 -8 -8 -7 -8 -8 -8 -7 -7 -7
-17 -17 -17 -18 -18 -19 -19 -19 -19 -19 -18 -17 -16 -15 -14 -14 -13 -13 -12 -12 -10 -10 -10 -8 -8 -7 -8 -7 -8 -8 -8 -8
-17 -18 -18 -18 -18 -19 -19 -19 -20 -19 -20 -18 -16 -17 -15 -15 -14 -13 -12 -12 -11 -11 -11 -10 -9 -8 -8 -8 -8 -7 -9 -8
-18 -18 -18 -18 -19 -19 -19 -19 -19 -19 -19 -19 -17 -17 -16 -16 -15 -13 -13 -12 -12 -11 -11 -11 -9 -8 -8 -8 -8 -8 -7 -8
-18 -18 -18 -19 -19 -19 -19 -19 -19 -19 -19 -19 -18 -18 -17 -16 -16 -15 -13 -13 -13 -11 -10 -10 -11 -10 -9 -8 -8 -8 -8 -7
-18 -19 -18 -19 -19 -19 -19 -20 -19 -19 -18 -17 -18 -18 -18 -17 -16 -16 -14 -13 -13 -13 -11 -10 -10 -10 -10 -9 -9 -8 -8 -9
-19 -19 -19 -19 -19 -19 -19 -19 -19 -18 -17 -17 -17 -17 -17 -17 -17 -16 -15 -14 -12 -12 -12 -11 -10 -10 -11 -11 -10 -9 -9 -9

GFSFLT2_500_temp_069.txt.gz
Temp
-10 -10 -10 -9 -9 -9 -9 -9 -9 -8 -8 -8 -8 -8 -8 -9 -8 -7 -8 -8 -7 -6 -6 -7 -7 -6 -6 -7 -7 -6 -7 -7
-11 -10 -10 -10 -10 -10 -9 -9 -9 -9 -9 -8 -8 -9 -8 -9 -8 -7 -8 -8 -8 -7 -6 -7 -7 -7 -6 -6 -7 -7 -6 -7
-11 -11 -11 -10 -10 -10 -10 -9 -10 -9 -9 -8 -8 -8 -9 -8 -8 -8 -8 -8 -8 -8 -7 -6 -6 -7 -7 -6 -7 -7 -7 -6
-12 -12 -11 -11 -10 -10 -10 -10 -10 -9 -9 -9 -8 -8 -8 -9 -8 -8 -9 -9 -8 -8 -8 -7 -7 -7 -6 -6 -6 -6 -6 -6
-14 -13 -12 -12 -11 -11 -10 -10 -10 -10 -9 -9 -9 -8 -8 -9 -9 -8 -9 -9 -9 -8 -8 -8 -7 -6 -6 -7 -6 -6 -6 -6
-14 -14 -13 -12 -12 -11 -11 -10 -10 -10 -9 -9 -9 -9 -8 -8 -8 -9 -8 -9 -9 -9 -8 -8 -7 -9 -7 -7 -7 -7 -7 -6
-14 -14 -13 -13 -12 -12 -12 -11 -11 -10 -10 -10 -9 -10 -9 -9 -8 -8 -8 -8 -8 -9 -9 -9 -8 -8 -8 -7 -6 -6 -7 -7
-15 -14 -14 -14 -14 -13 -12 -12 -11 -11 -11 -10 -10 -10 -10 -9 -9 -8 -8 -8 -8 -8 -8 -9 -9 -8 -8 -8 -8 -7 -7 -7
-15 -15 -15 -14 -14 -14 -13 -13 -13 -12 -12 -12 -11 -11 -10 -10 -10 -9 -9 -8 -8 -8 -8 -8 -8 -8 -8 -8 -8 -8 -8 -8
-15 -15 -15 -14 -15 -14 -14 -14 -14 -14 -13 -12 -12 -12 -12 -11 -10 -10 -9 -9 -9 -9 -9 -8 -8 -8 -8 -8 -8 -7 -7 -8
-15 -15 -15 -15 -15 -15 -15 -14 -14 -14 -14 -14 -14 -14 -13 -13 -12 -11 -11 -10 -9 -9 -9 -9 -8 -9 -8 -8 -8 -8 -8 -7
-15 -15 -15 -15 -15 -15 -15 -15 -15 -15 -14 -14 -14 -14 -14 -14 -13 -12 -11 -11 -10 -10 -9 -10 -9 -9 -9 -9 -8 -9 -8 -7
-15 -15 -15 -15 -15 -15 -15 -14 -15 -15 -15 -15 -15 -14 -14 -13 -13 -13 -12 -11 -11 -11 -10 -10 -10 -9 -9 -9 -9 -9 -9 -9
-16 -16 -16 -16 -16 -15 -15 -15 -15 -15 -14 -14 -14 -14 -14 -15 -14 -13 -13 -12 -12 -11 -11 -10 -10 -10 -10 -9 -9 -9 -9 -9
-17 -17 -17 -16 -16 -16 -16 -15 -15 -15 -15 -15 -15 -15 -15 -15 -15 -15 -14 -13 -12 -12 -11 -11 -10 -10 -10 -10 -10 -9 -9 -9
-17 -18 -17 -17 -17 -17 -17 -17 -16 -16 -16 -16 -15 -15 -15 -15 -15 -15 -15 -14 -13 -12 -12 -12 -12 -11 -10 -10 -10 -10 -9 -9
-18 -18 -18 -18 -18 -18 -18 -18 -17 -18 -17 -17 -17 -16 -16 -16 -15 -15 -15 -15 -15 -13 -12 -12 -12 -12 -11 -10 -10 -10 -10 -9
-18 -18 -18 -18 -18 -18 -18 -18 -18 -18 -17 -17 -17 -17 -16 -16 -16 -15 -15 -15 -15 -15 -14 -12 -12 -12 -12 -12 -11 -11 -10 -10
-19 -19 -18 -18 -18 -18 -18 -18 -18 -18 -18 -18 -17 -17 -17 -16 -16 -16 -16 -15 -15 -15 -15 -15 -12 -12 -12 -12 -12 -11 -11 -10

GFSFLT2_500_temp_072.txt.gz
Temp
-10 -9 -9 -9 -9 -11 -11 -11 -10 -8 -7 -7 -7 -8 -8 -8 -8 -9 -8 -8 -7 -6 -6 -6 -6 -7 -7 -7 -6 -6 -6 -6
-10 -10 -10 -9 -10 -10 -9 -11 -10 -10 -8 -7 -8 -8 -8 -9 -9 -8 -9 -9 -9 -7 -7 -6 -7 -7 -6 -7 -7 -6 -6 -6
-11 -11 -11 -10 -10 -10 -12 -11 -10 -11 -10 -7 -7 -8 -9 -9 -9 -9 -8 -8 -7 -7 -8 -7 -7 -7 -7 -7 -6 -6 -6 -6
-12 -11 -11 -11 -10 -10 -11 -10 -10 -11 -10 -8 -8 -8 -9 -9 -9 -9 -9 -9 -7 -8 -8 -7 -7 -7 -6 -6 -6 -6 -6 -6
-13 -12 -12 -11 -10 -10 -10 -11 -13 -12 -10 -8 -9 -9 -9 -9 -9 -9 -9 -9 -9 -9 -7 -7 -7 -7 -7 -6 -6 -6 -6 -6
-16 -15 -13 -11 -11 -11 -11 -12 -13 -13 -10 -9 -9 -9 -9 -9 -9 -9 -9 -9 -9 -9 -8 -8 -7 -7 -7 -7 -7 -7 -6 -6
-15 -14 -13 -13 -12 -12 -11 -11 -12 -13 -11 -9 -9 -9 -9 -9 -9 -9 -9 -9 -9 -9 -9 -8 -8 -7 -7 -7 -7 -7 -7 -7
-15 -14 -14 -13 -12 -12 -12 -12 -12 -12 -10 -11 -10 -10 -10 -9 -9 -9 -9 -9 -9 -9 -9 -10 -9 -9 -8 -8 -8 -8 -8 -7
-15 -14 -14 -14 -14 -13 -13 -12 -12 -13 -11 -11 -11 -11 -10 -10 -10 -9 -9 -9 -9 -9 -9 -9 -9 -9 -9 -9 -8 -8 -8 -8
-15 -15 -15 -14 -13 -14 -13 -13 -13 -13 -12 -12 -12 -11 -11 -10 -10 -10 -9 -9 -9 -9 -9 -9 -9 -9 -9 -9 -8 -8 -8 -8
-15 -16 -15 -15 -14 -14 -14 -13 -13 -13 -13 -13 -13 -13 -12 -12 -11 -10 -10 -10 -9 -9 -9 -8 -8 -9 -9 -9 -9 -9 -9 -8
-15 -15 -15 -14 -15 -15 -15 -14 -14 -13 -13 -13 -13 -13 -12 -12 -12 -11 -10 -10 -10 -9 -9 -9 -8 -8 -8 -9 -10 -9 -9 -9
-16 -16 -15 -15 -15 -15 -15 -14 -14 -14 -14 -14 -14 -13 -12 -13 -13 -12 -11 -10 -10 -10 -10 -9 -9 -9 -9 -8 -9 -9 -9 -10
-16 -16 -15 -15 -15 -15 -15 -15 -15 -15 -15 -14 -14 -14 -14 -14 -13 -13 -12 -12 -11 -11 -10 -10 -9 -9 -9 -9 -8 -9 -9 -9
-17 -17 -16 -16 -15 -15 -15 -15 -15 -15 -15 -15 -15 -15 -14 -14 -14 -14 -14 -13 -13 -12 -11 -11 -10 -10 -9 -9 -9 -8 -9 -9
-17 -17 -17 -17 -17 -16 -16 -16 -16 -16 -16 -16 -15 -15 -15 -15 -14 -14 -14 -14 -13 -13 -12 -12 -11 -10 -10 -10 -9 -9 -8 -9
-18 -18 -18 -18 -17 -17 -17 -17 -17 -17 -17 -17 -16 -16 -16 -15 -15 -15 -14 -14 -14 -14 -13 -12 -12 -11 -10 -10 -10 -9 -9 -9
-18 -18 -18 -18 -18 -18 -17 -17 -17 -17 -17 -17 -17 -17 -17 -16 -16 -16 -15 -15 -14 -14 -13 -13 -13 -12 -11 -11 -10 -10 -10 -9
-18 -18 -18 -18 -18 -18 -18 -18 -18 -17 -17 -17 -17 -17 -17 -17 -17 -17 -16 -16 -15 -14 -14 -14 -13 -13 -13 -12 -11 -10 -10 -10

GFSFLT2_500_temp_075.txt.gz
Temp
-10 -12 -12 -12 -11 -11 -9 -8 -8 -9 -9 -9 -9 -8 -7 -7 -8 -8 -8 -6 -6 -7 -6 -6 -6 -7 -6 -6 -6 -6 -6 -6
-11 -10 -11 -11 -12 -11 -10 -9 -8 -9 -9 -10 -8 -7 -8 -8 -8 -8 -7 -6 -6 -6 -6 -7 -7 -7 -6 -6 -6 -6 -6 -6
-12 -11 -11 -10 -10 -12 -10 -10 -8 -9 -10 -8 -7 -8 -8 -8 -8 -8 -7 -7 -7 -6 -5 -6 -6 -7 -6 -6 -6 -6 -6 -6
-12 -12 -11 -11 -13 -11 -11 -11 -10 -8 -10 -9 -8 -8 -8 -8 -8 -8 -7 -8 -7 -7 -7 -7 -7 -7 -7 -6 -6 -6 -6 -6
-13 -11 -12 -11 -10 -11 -12 -11 -10 -10 -10 -10 -10 -9 -9 -9 -9 -8 -8 -8 -8 -8 -7 -7 -7 -7 -7 -7 -7 -6 -6 -6
-14 -14 -13 -12 -11 -11 -11 -12 -11 -11 -10 -11 -10 -9 -9 -9 -9 -9 -9 -8 -8 -8 -8 -8 -7 -7 -7 -7 -7 -7 -7 -6
-14 -13 -14 -15 -12 -11 -11 -11 -12 -12 -11 -11 -11 -9 -9 -9 -9 -9 -9 -9 -9 -9 -9 -8 -8 -7 -6 -7 -7 -7 -7 -7
-15 -14 -14 -13 -12 -11 -11 -12 -13 -13 -11 -10 -10 -10 -9 -9 -9 -9 -9 -9 -9 -9 -9 -9 -8 -8 -7 -7 -8 -8 -7 -7
-17 -16 -15 -14 -13 -13 -13 -13 -14 -14 -11 -10 -10 -10 -10 -10 -10 -9 -9 -9 -9 -9 -9 -10 -9 -9 -8 -8 -8 -8 -7 -8
-17 -16 -15 -15 -14 -13 -14 -13 -14 -13 -10 -10 -11 -11 -11 -10 -10 -10 -10 -10 -9 -9 -9 -9 -9 -9 -9 -9 -8 -8 -8 -8
-16 -17 -17 -15 -15 -16 -15 -14 -15 -14 -13 -13 -12 -12 -11 -11 -10 -10 -10 -10 -10 -10 -10 -9 -9 -9 -9 -9 -9 -9 -9 -9
-16 -16 -17 -17 -14 -15 -15 -15 -15 -15 -14 -13 -13 -14 -11 -10 -10 -10 -10 -10 -10 -9 -9 -9 -9 -9 -9 -9 -9 -9 -9 -9
-16 -16 -17 -14 -15 -16 -15 -15 -14 -14 -14 -13 -14 -13 -11 -12 -12 -12 -11 -10 -10 -10 -10 -9 -9 -9 -9 -9 -9 -9 -9 -9
-16 -16 -16 -14 -16 -16 -15 -15 -14 -14 -14 -14 -14 -14 -13 -13 -13 -13 -12 -11 -11 -10 -10 -10 -10 -9 -9 -9 -9 -9 -9 -9
-16 -16 -15 -15 -15 -15 -15 -15 -15 -15 -14 -14 -14 -14 -14 -14 -14 -13 -13 -12 -12 -11 -11 -11 -10 -10 -10 -9 -9 -9 -9 -9
-17 -17 -17 -16 -16 -16 -15 -15 -15 -15 -15 -15 -14 -14 -14 -14 -14 -14 -14 -13 -13 -12 -12 -12 -11 -11 -10 -10 -9 -9 -9 -8
-17 -17 -17 -17 -17 -16 -16 -16 -15 -15 -15 -15 -15 -15 -15 -15 -15 -14 -14 -14 -14 -13 -13 -13 -12 -12 -11 -11 -10 -10 -9 -9
-18 -18 -17 -17 -17 -17 -17 -17 -17 -16 -16 -16 -16 -16 -16 -16 -16 -16 -15 -15 -15 -14 -14 -14 -14 -13 -12 -12 -11 -10 -10 -10
-19 -18 -18 -18 -18 -18 -18 -17 -17 -17 -17 -17 -17 -17 -16 -16 -16 -16 -16 -16 -15 -16 -16 -15 -15 -14 -14 -13 -12 -11 -10 -10